sat.trackr.live / text

‹ back to catalog

STARLINK-36045

NORAD 66811 · 2025-278W

PAYLOAD ACTIVE UNKNOWN

§ Identity

Operator
Country
US
Launch date
2025-12-01
Launch site
AFETR
Launch vehicle
Mass (kg)
RCS (m²)

Purposes: comms

External: N2YO · Heavens-Above · Gunter

§ Orbital elements

Epoch: 2026-05-25T02:16:41.126016Z

Period
94.27 min
Inclination
43.0027°
Eccentricity
0.0001113
Mean motion
15.27584116 rev/d
Perigee alt
482.3 km
Apogee alt
483.8 km
Semi-major
6,861.2 km
B*
2.9746e-4
RAAN
42.9232°
Arg perigee
262.3379°
Mean anomaly
97.7347°
Rev number
2,689

§ Raw data

STARLINK-360451 66811U 25278W   26145.09492044  .00007933  00000+0  29746-3 0  99982 66811  43.0027  42.9232 0001113 262.3379  97.7347 15.27584116 26892

JSON: /api/v1/satellites/66811 · /tle

For live sub-satellite position, see the globe view (requires WebGL).

§ Visibility from observer

Set your observer location to see the next 7 days of passes ≥ 10°. The values pass through the URL so the page stays shareable.

No JS? Fill the form by hand. The geolocation button needs JavaScript.